Tracking 27079 objects as of 24-Mar-2023
HD Live streaming from Space Station
objects crossing your sky now

GAOFEN 3 DEB

Track GAOFEN 3 DEB now!
10-day predictions


NORAD ID: 42678
Int'l Code: 2016-049C
Perigee: 741.1 km
Apogee: 753.0 km
Inclination: 98.4 °
Period: 99.6 minutes
Semi major axis: 7118 km
RCS: Unknown
Launch date: August 9, 2016
Source: People's Republic of China (PRC)
Launch site: Jiuquan Satellite Launch Center, China (JSC)

Note: This is SATELLITE DEBRIS
Your satellite tracking list
Your tracking list is empty




NASA's NSSDC Master Catalog

Two Line Element Set (TLE):
1 42678U 16049C   23082.80723294  .00000543  00000-0  16588-3 0  9990
2 42678  98.3542  98.2445 0008320 350.9700   9.1341 14.45640533343169
Source of the keplerian elements: AFSPC